sat.trackr.live / text

‹ back to catalog

STARLINK-31107

NORAD 58684 · 2023-211T

PAYLOAD ACTIVE UNKNOWN

§ Identity

Operator
Country
US
Launch date
2023-12-29
Launch site
AFETR
Launch vehicle
Mass (kg)
RCS (m²)

Purposes: comms

External: N2YO · Heavens-Above · Gunter

§ Orbital elements

Epoch: 2026-05-25T00:27:31.496256Z

Period
94.27 min
Inclination
43.0065°
Eccentricity
0.0001009
Mean motion
15.27584997 rev/d
Perigee alt
482.3 km
Apogee alt
483.7 km
Semi-major
6,861.2 km
B*
6.4270e-7
RAAN
14.6003°
Arg perigee
285.3655°
Mean anomaly
74.7085°
Rev number
13,413

§ Raw data

STARLINK-311071 58684U 23211T   26145.01911454 -.00000244  00000+0  64270-6 0  99982 58684  43.0065  14.6003 0001009 285.3655  74.7085 15.27584997134139

JSON: /api/v1/satellites/58684 · /tle

For live sub-satellite position, see the globe view (requires WebGL).

§ Visibility from observer

Set your observer location to see the next 7 days of passes ≥ 10°. The values pass through the URL so the page stays shareable.

No JS? Fill the form by hand. The geolocation button needs JavaScript.